[[{"header":{"parameterUnit":"m.s-1","parameterCategory":1,"la1":30.2991,"la2":30.254,"lo1":-89.0895,"lo2":-89.0444,"dy":0.0017,"dx":0.0017,"nx":28,"ny":28,"refTime":"2025-06-20T21:00:00:Z","depth":0,"parameterNumber":2,"parameterNumberName":"U-component_of_WINDS"},"data":[0,0,0,0,0,0,0,0,0,0,0,0,0,0,0,0,0,0,0,0,0,0,0,0,0,0,0,0,0,0,0,0,0,0,0,0,0,0,0,0,0,0,0,0,0,0,0,0,0,0,0,0,0,0,0,0,0,0,2.284,2.284,0,2.2911,2.2912,2.2912,2.2873,2.2871,2.2869,2.2868,2.2942,2.2946,2.2949,0,0,0,0,0,0,0,0,0,0,0,0,0,2.2672,2.2676,2.284,2.2841,2.2841,2.2911,2.2912,2.2913,2.2874,2.2871,2.2869,2.2867,2.2941,2.2945,2.295,0,0,0,0,0,0,0,0,0,0,0,0,0,2.2744,2.2677,2.2839,2.283,2.283,2.291,2.2912,2.2913,2.2874,2.2871,2.2868,2.2866,2.2939,2.2945,2.295,2.3044,0,0,2.2968,2.297,0,0,0,0,0,0,0,0,2.274,2.2751,2.2831,2.2831,2.2831,2.288,2.288,2.2957,2.2875,2.2858,2.2868,2.2864,2.2924,2.2931,2.295,2.3048,2.3051,2.2968,2.2972,2.2974,2.2976,0,0,0,0,0,0,0,2.2735,2.2747,2.2868,2.2832,2.2832,2.2823,2.283,2.2894,2.2906,2.2859,2.2856,2.2865,2.2923,2.2945,2.2952,2.3052,2.2968,2.2973,2.2977,2.2979,2.3231,2.3234,0,0,0,0,0,0,2.2731,2.2743,2.2866,2.287,2.2778,2.2829,2.2837,2.2867,2.2905,2.2908,2.2867,2.2863,2.2937,2.2945,2.2954,2.3067,2.2974,2.2979,2.2983,2.3227,2.3231,2.3235,0,0,0,0,0,0,2.2727,2.2742,2.2863,2.2806,2.2821,2.2835,2.287,2.287,2.2892,2.2912,2.2914,2.2887,2.2935,2.2946,2.3022,2.3069,2.2982,2.2987,2.3224,2.3229,2.3233,2.3294,0,0,0,0,0,0,2.2723,2.2741,2.2776,2.2807,2.2824,2.2929,2.2873,2.2874,2.2902,2.2896,2.2931,2.2934,2.2933,2.3014,2.3028,2.3076,2.2992,2.3219,2.3226,2.3232,2.3287,2.33,2.3311,0,0,0,0,0,2.2717,2.2791,2.2778,2.2793,2.2868,2.2932,2.2941,2.2939,2.2906,2.2942,2.2955,2.2933,2.3062,2.3022,2.3037,2.3088,2.3216,2.3224,2.3231,2.3282,2.3298,2.331,0,0,0,0,0,0,2.2765,2.2794,2.2781,2.2867,2.2897,2.2925,2.297,2.2955,2.2995,2.2989,2.2984,2.2992,2.3071,2.3087,2.3042,2.3181,2.3134,2.3145,2.3168,2.3182,2.3194,2.3189,2.2996,0,0,0,0,0,2.2786,2.2834,2.2857,2.2931,2.2947,2.2956,2.2984,2.2979,2.301,2.3023,2.3041,2.3073,2.3121,2.3152,2.3197,2.3289,2.3297,2.3332,2.3343,2.3353,2.3362,2.3413,2.3429,2.3259,2.3259,2.3259,0,0,2.2829,2.2851,2.2882,2.2941,2.2964,2.3015,2.2967,2.3023,2.3061,2.3032,2.3104,2.3119,2.3154,2.3239,2.3277,2.3255,2.3411,2.3362,2.3369,2.3374,2.3422,2.3438,2.3453,2.3264,2.3263,2.3262,0,0,2.2934,2.2955,2.3019,2.3043,2.3078,2.3084,2.3099,2.313,2.3139,2.3211,2.3191,2.3236,2.3318,2.3344,2.3368,2.3484,2.3466,2.3499,2.356,2.361,2.3623,2.3635,2.3677,2.3692,2.3508,2.3509,2.3509,0,2.2983,2.3059,2.3054,2.3112,2.3139,2.3114,2.318,2.3203,2.3252,2.3271,2.3245,2.3348,2.337,2.3461,2.3489,2.3509,2.3527,2.3495,2.3621,2.3633,2.3644,2.3684,2.37,2.3512,2.3512,2.3512,2.3511,0,2.3118,2.3171,2.3219,2.3266,2.3298,2.336,2.3365,2.3399,2.3391,2.34,2.3475,2.3501,2.3551,2.3572,2.3565,2.3662,2.3647,2.3621,2.3574,2.3664,2.3702,2.3717,2.3518,2.3517,2.3515,2.3514,0,0,2.3256,2.33,2.3317,2.3339,2.3376,2.3417,2.3478,2.3526,2.3556,2.359,2.3641,2.3712,2.3688,2.3716,2.3712,2.3755,2.3847,2.3724,2.3725,2.3747,2.3956,2.3976,2.3993,2.3835,2.3838,2.384,2.3953,0,2.3364,2.3469,2.3467,2.3565,2.3614,2.3592,2.3645,2.3674,2.3684,2.3728,2.3739,2.379,2.3754,2.3771,2.3813,2.3827,2.3889,2.3818,2.3883,2.3886,2.3875,2.4013,2.4034,2.414,2.3968,2.397,2.3972,0,2.3504,2.3542,2.3646,2.3676,2.3697,2.3745,2.379,2.3831,2.3864,2.3869,2.39,2.3889,2.3952,2.3903,2.3989,2.3942,2.3968,2.3979,2.3983,2.3989,2.3935,2.4024,2.4173,2.4189,2.3995,2.3993,2.3992,0,2.3594,2.3673,2.3745,2.3764,2.3801,2.3835,2.3853,2.3882,2.3912,2.3951,2.3971,2.4017,2.4043,2.4079,2.4082,2.4046,2.417,2.4121,2.4176,2.4176,2.4203,2.4201,2.4359,2.4219,2.4219,2.4219,2.4218,0,2.3716,2.378,2.3786,2.383,2.3902,2.3899,2.397,2.3984,2.4011,2.4059,2.4042,2.4087,2.4088,2.4134,2.4137,2.4208,2.422,2.4226,2.4226,2.4228,2.4227,2.4245,2.4238,2.4223,2.4222,2.4221,2.422,0,2.3829,2.3836,2.3913,2.3942,2.3951,2.4003,2.4028,2.4071,2.4079,2.414,2.4154,2.4167,2.4221,2.4227,2.429,2.4291,2.4378,2.437,2.4367,2.4366,2.4421,2.4416,2.4597,2.4621,2.4464,2.4466,2.4467,0,2.3906,2.3955,2.399,2.402,2.4039,2.4088,2.4119,2.4118,2.415,2.4192,2.423,2.4281,2.4323,2.441,2.4426,2.4473,2.4467,2.4527,2.4474,2.4475,2.4469,2.4466,2.4471,2.4537,2.4539,2.454,2.4542,0,2.4043,2.4044,2.4088,2.4133,2.417,2.4206,2.4239,2.4265,2.4269,2.4306,2.436,2.4392,2.4456,2.4508,2.4556,2.4574,2.4559,2.4558,2.4573,2.4576,2.4573,2.4576,2.4396,2.4554,2.4553,2.4552,2.4551,2.4551,2.4141,2.4184,2.4215,2.4265,2.429,2.4322,2.4364,2.4377,2.4423,2.4474,2.4471,2.4531,2.4564,2.4626,2.4648,2.4695,2.4676,2.4698,2.4703,2.4709,2.4715,2.4565,2.4704,2.4704,2.4703,2.4703,2.4703,0,2.4278,2.4297,2.4342,2.439,2.4429,2.4411,2.4447,2.4482,2.4535,2.4566,2.4607,2.467,2.4721,2.4741,2.479,2.4825,2.4819,2.4838,2.4835,2.484,2.4729,2.4711,2.4841,2.4841,2.4841,2.4841,2.4841,2.4841,2.4353,2.4425,2.443,2.4514,2.4532,2.4591,2.4613,2.4643,2.4668,2.4739,2.4781,2.4793,2.482,2.4872,2.4918,2.4922,2.4942,2.4964,2.4966,2.4862,2.4848,2.4835,2.4818,2.4968,2.4968,2.5072,2.5073,2.5074]},{"header":{"parameterUnit":"m.s-1","parameterCategory":1,"la1":30.2991,"la2":30.254,"lo1":-89.0895,"lo2":-89.0444,"dy":0.0017,"dx":0.0017,"nx":28,"ny":28,"refTime":"2025-06-20T21:00:00:Z","depth":0,"parameterNumber":3,"parameterNumberName":"V-component_of_WINDS"},"data":[0,0,0,0,0,0,0,0,0,0,0,0,0,0,0,0,0,0,0,0,0,0,0,0,0,0,0,0,0,0,0,0,0,0,0,0,0,0,0,0,0,0,0,0,0,0,0,0,0,0,0,0,0,0,0,0,0,0,-1.4621,-1.4621,0,-1.465,-1.465,-1.4651,-1.4637,-1.4637,-1.4636,-1.4635,-1.4665,-1.4666,-1.4668,0,0,0,0,0,0,0,0,0,0,0,0,0,-1.4554,-1.4556,-1.4621,-1.4621,-1.4622,-1.465,-1.465,-1.4651,-1.4638,-1.4637,-1.4636,-1.4635,-1.4664,-1.4666,-1.4668,0,0,0,0,0,0,0,0,0,0,0,0,0,-1.4583,-1.4556,-1.4621,-1.4618,-1.4619,-1.465,-1.465,-1.4651,-1.4638,-1.4637,-1.4636,-1.4635,-1.4664,-1.4666,-1.4668,-1.4703,0,0,-1.4675,-1.4676,0,0,0,0,0,0,0,0,-1.4582,-1.4586,-1.4618,-1.4619,-1.4619,-1.4639,-1.4638,-1.4669,-1.4638,-1.463,-1.4635,-1.4634,-1.4657,-1.466,-1.4668,-1.4705,-1.4706,-1.4675,-1.4676,-1.4677,-1.4678,0,0,0,0,0,0,0,-1.458,-1.4585,-1.4632,-1.4619,-1.4619,-1.4616,-1.4619,-1.4644,-1.465,-1.4631,-1.463,-1.4634,-1.4657,-1.4666,-1.4668,-1.4707,-1.4675,-1.4677,-1.4678,-1.4679,-1.4775,-1.4776,0,0,0,0,0,0,-1.4578,-1.4583,-1.4632,-1.4633,-1.4597,-1.4618,-1.4621,-1.4634,-1.4649,-1.4651,-1.4635,-1.4633,-1.4662,-1.4666,-1.4669,-1.4712,-1.4677,-1.4679,-1.4681,-1.4774,-1.4775,-1.4777,0,0,0,0,0,0,-1.4576,-1.4582,-1.463,-1.4608,-1.4614,-1.4621,-1.4634,-1.4635,-1.4643,-1.4652,-1.4653,-1.4642,-1.4662,-1.4666,-1.4695,-1.4713,-1.468,-1.4682,-1.4772,-1.4774,-1.4776,-1.4798,0,0,0,0,0,0,-1.4575,-1.4582,-1.4595,-1.4608,-1.4615,-1.4656,-1.4635,-1.4636,-1.4647,-1.4645,-1.4659,-1.4661,-1.4661,-1.4692,-1.4697,-1.4715,-1.4684,-1.4771,-1.4773,-1.4776,-1.4795,-1.48,-1.4804,0,0,0,0,0,-1.4572,-1.46,-1.4596,-1.4602,-1.4632,-1.4657,-1.4661,-1.4661,-1.4649,-1.4662,-1.4668,-1.466,-1.471,-1.4695,-1.4701,-1.472,-1.477,-1.4773,-1.4775,-1.4793,-1.4799,-1.4804,0,0,0,0,0,0,-1.4588,-1.4601,-1.4597,-1.463,-1.4642,-1.4654,-1.4671,-1.4666,-1.4683,-1.468,-1.4679,-1.4683,-1.4713,-1.4719,-1.4702,-1.4755,-1.4738,-1.4742,-1.475,-1.4755,-1.476,-1.4757,-1.4686,0,0,0,0,0,-1.4595,-1.4615,-1.4625,-1.4653,-1.466,-1.4665,-1.4675,-1.4674,-1.4687,-1.4692,-1.47,-1.4713,-1.4732,-1.4744,-1.4762,-1.4797,-1.48,-1.4812,-1.4817,-1.482,-1.4824,-1.4843,-1.4849,-1.4786,-1.4786,-1.4786,0,0,-1.4611,-1.462,-1.4632,-1.4656,-1.4666,-1.4686,-1.4669,-1.4691,-1.4706,-1.4696,-1.4724,-1.473,-1.4744,-1.4777,-1.4791,-1.4783,-1.4842,-1.4824,-1.4826,-1.4828,-1.4847,-1.4853,-1.4858,-1.4788,-1.4787,-1.4787,0,0,-1.4648,-1.4658,-1.4682,-1.4692,-1.4707,-1.4711,-1.4716,-1.473,-1.4734,-1.4762,-1.4755,-1.4773,-1.4805,-1.4816,-1.4825,-1.4869,-1.4863,-1.4875,-1.4897,-1.4916,-1.4921,-1.4925,-1.4941,-1.4947,-1.4878,-1.4878,-1.4878,0,-1.4665,-1.4695,-1.4695,-1.4718,-1.4729,-1.4721,-1.4746,-1.4756,-1.4776,-1.4784,-1.4774,-1.4815,-1.4824,-1.4859,-1.487,-1.4878,-1.4885,-1.4873,-1.492,-1.4925,-1.4929,-1.4944,-1.495,-1.488,-1.4879,-1.4879,-1.4879,0,-1.4715,-1.4736,-1.4754,-1.4774,-1.4787,-1.4811,-1.4815,-1.4828,-1.4826,-1.4831,-1.486,-1.4871,-1.4891,-1.49,-1.4898,-1.4935,-1.4929,-1.492,-1.4903,-1.4936,-1.495,-1.4956,-1.4882,-1.4881,-1.4881,-1.488,0,0,-1.4762,-1.4783,-1.479,-1.4799,-1.4815,-1.4832,-1.4855,-1.4875,-1.4887,-1.4901,-1.4921,-1.4949,-1.4941,-1.4952,-1.4952,-1.4969,-1.5003,-1.4958,-1.4958,-1.4966,-1.5045,-1.5051,-1.5058,-1.4999,-1.5,-1.5001,-1.5043,0,-1.4801,-1.4843,-1.4844,-1.4882,-1.4902,-1.4896,-1.4917,-1.4929,-1.4934,-1.4952,-1.4958,-1.4978,-1.4966,-1.4972,-1.4989,-1.4995,-1.5019,-1.4992,-1.5018,-1.5019,-1.5014,-1.5065,-1.5072,-1.5111,-1.5049,-1.505,-1.5051,0,-1.4852,-1.4869,-1.4909,-1.4923,-1.4931,-1.495,-1.4969,-1.4986,-1.5,-1.5003,-1.5016,-1.5014,-1.5038,-1.5021,-1.5055,-1.5037,-1.5048,-1.5053,-1.5054,-1.5056,-1.5036,-1.5068,-1.5124,-1.513,-1.5059,-1.5058,-1.5058,0,-1.4883,-1.4915,-1.4943,-1.4951,-1.4969,-1.4982,-1.499,-1.5004,-1.5016,-1.5033,-1.5041,-1.506,-1.507,-1.5086,-1.5089,-1.5076,-1.5123,-1.5106,-1.5126,-1.5126,-1.5136,-1.5135,-1.5194,-1.5143,-1.5143,-1.5143,-1.5143,0,-1.4926,-1.495,-1.4957,-1.4974,-1.5002,-1.5004,-1.5032,-1.5039,-1.5051,-1.507,-1.5066,-1.5084,-1.5087,-1.5106,-1.5109,-1.5137,-1.5141,-1.5145,-1.5145,-1.5145,-1.5144,-1.5151,-1.5149,-1.5145,-1.5144,-1.5144,-1.5144,0,-1.4964,-1.497,-1.5,-1.5015,-1.5019,-1.5039,-1.5052,-1.5069,-1.5074,-1.5098,-1.5104,-1.5112,-1.5134,-1.5139,-1.5165,-1.5167,-1.52,-1.5198,-1.5195,-1.5195,-1.5215,-1.5213,-1.528,-1.5289,-1.5233,-1.5234,-1.5234,0,-1.4991,-1.501,-1.5027,-1.504,-1.5048,-1.5069,-1.5081,-1.5084,-1.5098,-1.5116,-1.5131,-1.5153,-1.517,-1.5206,-1.5214,-1.5234,-1.5232,-1.5254,-1.5235,-1.5235,-1.5233,-1.5231,-1.5234,-1.5258,-1.5258,-1.5259,-1.5259,0,-1.5038,-1.504,-1.5059,-1.5079,-1.5094,-1.511,-1.5125,-1.5135,-1.514,-1.5156,-1.5178,-1.5192,-1.5219,-1.524,-1.5261,-1.5269,-1.5265,-1.5265,-1.5271,-1.5271,-1.5269,-1.527,-1.5205,-1.5264,-1.5263,-1.5263,-1.5263,-1.5262,-1.5072,-1.5089,-1.5104,-1.5124,-1.5136,-1.5151,-1.5167,-1.5175,-1.5194,-1.5216,-1.5217,-1.5242,-1.5257,-1.5284,-1.5294,-1.5314,-1.5307,-1.5315,-1.5317,-1.5319,-1.5321,-1.5266,-1.5318,-1.5317,-1.5317,-1.5317,-1.5317,0,-1.5119,-1.5128,-1.5148,-1.5169,-1.5186,-1.5181,-1.5198,-1.5212,-1.5234,-1.5249,-1.5266,-1.5293,-1.5314,-1.5325,-1.5346,-1.536,-1.5358,-1.5365,-1.5364,-1.5366,-1.5326,-1.5319,-1.5366,-1.5366,-1.5366,-1.5366,-1.5366,-1.5366,-1.5145,-1.5174,-1.5178,-1.5212,-1.5222,-1.5246,-1.5256,-1.527,-1.5281,-1.5311,-1.5329,-1.5336,-1.5349,-1.5372,-1.5391,-1.5394,-1.5402,-1.541,-1.5411,-1.5374,-1.5369,-1.5364,-1.5357,-1.5411,-1.5412,-1.545,-1.545,-1.545]}]]